Overview Statistics Trail Chart Weather Telemetry Raw packets
 

This is the latest recevied weather packets stored in our database for station/object OM6ACB-6. If no packets are shown the sender has not sent any weather packets the latest 10 day(s).

<< 28 29 30 31 32 33 34 >>
Time Temp. Humidity Pressure Rain* Wind** Luminosity Snow
1788245593 23.89° C 21% 1023.4 hPa 0 mm - - -
1788244992 24.44° C 20% 1023.3 hPa 0 mm - - -
1788244392 25.56° C 20% 1023.5 hPa 0 mm - - -
1788243792 23.89° C 21% 1023.3 hPa 0 mm - - -
1788243191 22.78° C 21% 1023.2 hPa 0 mm - - -
1788242591 21.67° C 22% 1023.1 hPa 0 mm - - -
1788241991 21.11° C 22% 1022.9 hPa 0 mm - - -
1788241391 20° C 22% 1022.7 hPa 0 mm - - -
1788240790 20° C 23% 1022.6 hPa 0 mm - - -
1788240190 18.89° C 23% 1022.4 hPa 0 mm - - -
1788239594 18.33° C 23% 1022.3 hPa 0 mm - - -
1788238989 18.33° C 23% 1022.3 hPa 0 mm - - -
1788238389 16.11° C 24% 1021.6 hPa 0 mm - - -
1788237789 16.67° C 24% 1021.6 hPa 0 mm - - -
1788237189 14.44° C 25% 1021.2 hPa 0 mm - - -
1788236588 13.33° C 32% 1021 hPa 0 mm - - -
1788235988 13.33° C 53% 1020.8 hPa 0 mm - - -
1788235388 13.33° C 52% 1020.8 hPa 0 mm - - -
1788234787 13.33° C 50% 1020.8 hPa 0 mm - - -
1788234187 13.33° C 50% 1020.7 hPa 0 mm - - -
1788233587 13.33° C 47% 1020.6 hPa 0 mm - - -
1788232986 13.89° C 46% 1020.8 hPa 0 mm - - -
1788232386 14.44° C 46% 1020.8 hPa 0 mm - - -
1788231800 14.44° C 43% 1020.9 hPa 0 mm - - -
1788231186 14.44° C 44% 1020.9 hPa 0 mm - - -

* Rain latest hour (hover to see other rain measurements)
** Current wind speed in m/s (hover to see current wind gust speed)